Theta_e
317 314 311 313 316 320 321 323 317 320 329 330 330 338 342 349 348 341 345 350 358 363 363 363 364 363 363 363 362 363 363 363
310 310 315 316 317 317 317 316 317 322 323 334 345 343 346 349 349 341 343 347 361 363 362 363 363 363 363 363 362 363 362 362
307 308 312 318 318 319 317 316 315 326 322 329 346 349 350 350 349 343 342 346 360 362 363 363 363 362 362 362 362 362 362 360
303 306 310 314 317 318 317 317 315 320 328 333 349 348 349 351 349 345 342 346 355 363 362 362 362 362 362 361 361 361 362 361
305 305 306 309 315 313 315 316 313 323 329 339 344 350 352 352 351 346 343 344 353 356 361 362 361 361 361 361 361 361 361 361
305 304 305 310 312 314 314 313 318 329 330 334 345 352 352 353 351 348 344 344 348 350 353 354 356 361 360 360 361 361 360 360
305 304 306 311 309 314 316 314 316 323 330 341 349 352 351 349 350 346 343 344 347 345 348 349 350 356 359 358 359 360 359 359
308 309 307 309 310 311 311 312 314 319 327 341 348 349 347 346 345 343 343 344 346 347 347 347 346 355 353 351 352 353 353 356
308 310 310 310 310 312 310 310 315 315 317 330 342 347 347 346 346 344 346 346 346 350 352 349 347 351 349 349 350 351 353 355
309 311 310 309 311 310 311 313 317 318 318 318 334 339 344 345 346 345 344 349 350 351 353 353 349 349 350 348 348 348 351 356
310 310 309 310 308 309 311 315 317 317 318 319 321 336 345 346 346 349 346 349 351 353 354 354 353 351 352 351 348 349 348 352
308 309 309 307 308 310 312 315 316 316 317 322 331 339 344 347 347 349 351 351 352 353 357 355 355 355 353 353 351 350 347 348
308 309 308 310 305 307 313 314 314 316 317 317 328 338 341 344 348 350 352 354 354 355 357 357 356 355 354 353 352 351 349 350
307 307 308 307 302 309 313 312 312 315 316 316 318 320 327 337 345 350 352 353 356 354 355 358 358 356 353 353 352 351 351 348
302 307 306 306 303 309 313 312 312 314 316 315 317 320 325 324 324 342 351 353 354 357 354 357 360 357 356 357 353 350 351 349
300 304 305 304 304 308 311 311 311 313 314 315 318 324 330 333 334 325 337 351 355 356 357 358 357 357 355 353 349 351 349 349
302 304 302 303 303 306 310 311 311 312 314 317 321 325 329 334 339 335 330 348 354 354 358 356 354 350 350 348 347 346 347 349
301 304 303 303 303 307 309 309 312 314 316 319 322 325 328 331 335 341 341 339 350 354 356 357 354 352 350 347 348 348 346 347
299 303 305 303 302 304 308 312 314 316 319 321 323 324 328 331 336 340 342 344 342 352 355 358 358 353 351 349 349 347 348 344
301 300 296 304 295 303 307 309 312 315 318 322 325 328 331 333 338 341 343 345 343 346 354 355 358 354 354 346 343 345 346 346
Wind_Speed
6 8 10 6 4 2 3 4 6 4 3 3 2 3 3 8 15 20 20 20 19 18 16 15 16 15 15 14 12 13 13 13
11 16 4 4 5 3 4 2 6 5 6 3 4 1 4 5 18 22 21 21 21 18 16 16 16 14 13 13 13 11 11 11
13 16 13 3 5 6 7 4 7 7 3 2 5 2 2 9 16 21 21 20 21 19 16 14 16 15 14 14 13 13 12 11
13 15 10 5 8 7 9 2 5 9 5 3 5 3 4 11 15 18 19 19 20 19 19 17 15 14 13 13 13 13 12 11
15 10 7 7 5 12 7 10 5 11 5 5 2 6 8 11 15 16 17 18 18 19 16 16 16 14 12 11 11 11 11 11
12 11 11 3 8 3 9 7 7 4 3 7 6 8 7 12 14 16 15 17 17 17 18 16 15 14 13 11 11 10 9 9
14 9 7 5 6 3 5 11 5 2 5 6 8 11 13 13 16 16 16 17 17 18 18 17 16 14 13 13 11 10 10 9
2 6 6 4 4 6 9 8 9 5 8 3 8 11 13 14 16 19 20 20 17 17 17 16 12 15 14 13 12 11 11 11
6 9 6 7 8 7 11 12 11 4 5 5 8 10 11 13 16 20 19 15 17 16 15 16 13 10 9 8 8 9 12 10
5 7 10 9 7 11 11 14 9 10 11 7 11 10 12 12 12 15 18 20 19 18 16 15 11 10 10 9 9 8 10 11
10 9 10 10 12 13 12 13 8 8 7 7 10 10 10 10 10 12 17 19 19 18 16 15 13 11 10 9 8 9 8 11
8 10 9 12 13 8 12 8 11 7 5 6 3 8 9 9 10 12 14 17 18 18 17 16 14 13 11 10 10 9 8 9
13 12 11 10 15 16 14 6 11 9 6 3 6 6 6 7 8 9 11 15 18 18 17 17 17 14 11 9 10 9 9 10
7 9 10 11 12 14 6 7 11 10 7 5 2 5 4 4 7 9 12 15 15 14 18 18 15 13 11 10 10 9 9 9
8 8 5 15 11 7 9 7 8 11 8 5 2 5 7 6 7 9 12 13 15 16 17 17 14 11 12 12 11 9 10 9
10 8 10 11 12 8 10 8 9 5 5 3 3 11 9 11 9 7 11 13 13 14 16 15 12 12 11 11 6 7 9 9
6 3 8 14 13 11 10 12 13 6 1 4 8 8 11 12 12 9 7 9 12 15 15 13 13 13 12 12 10 9 9 9
6 7 10 8 12 12 11 4 2 1 5 7 10 11 12 14 14 12 7 7 10 13 15 15 12 11 10 10 10 10 9 8
10 8 10 8 14 11 9 9 7 7 6 8 11 13 13 13 13 14 13 10 9 11 13 15 15 10 10 9 10 9 8 8
10 10 11 13 11 15 15 10 6 7 8 9 11 11 12 12 13 14 14 13 7 10 11 13 14 12 15 12 10 8 7 9
Wind_Direction
268 260 258 91 80 37 328 322 352 325 242 319 92 93 68 89 158 161 156 158 153 159 162 157 154 154 149 144 142 141 139 140
253 252 189 291 120 27 323 96 353 344 259 170 51 24 42 148 165 162 162 160 138 155 161 155 151 148 143 142 142 142 143 145
240 250 268 234 289 305 304 326 1 357 13 247 120 46 172 165 173 168 161 160 154 153 156 154 150 149 148 150 150 149 150 152
239 239 235 265 277 279 283 314 349 336 303 71 92 145 144 159 170 171 159 158 154 154 154 152 153 154 155 158 158 157 155 156
258 272 268 273 290 262 299 289 31 326 297 79 141 109 141 152 161 161 162 166 158 164 158 152 152 155 158 161 162 163 162 161
245 251 245 136 258 286 275 306 333 324 17 61 84 133 133 149 156 162 175 171 166 171 170 173 165 157 161 167 169 168 174 173
237 246 230 155 255 263 295 268 272 309 337 18 136 152 157 160 163 168 179 175 175 176 174 182 173 166 167 175 180 179 182 188
323 287 251 198 244 292 285 248 260 208 124 115 169 181 172 172 171 174 180 181 180 182 175 185 176 163 191 186 195 199 199 187
217 254 254 281 262 247 262 261 233 289 320 174 197 200 198 193 180 187 182 181 188 183 176 188 184 177 184 192 198 199 208 207
249 222 250 252 288 259 250 260 301 303 300 262 207 214 207 206 194 187 184 190 191 184 183 196 188 190 186 196 196 204 202 200
244 241 251 264 251 255 254 256 271 287 286 253 229 207 206 216 232 196 195 191 198 189 190 191 199 184 199 200 197 210 207 200
236 237 228 244 247 234 240 240 266 263 269 246 223 196 196 209 217 199 197 197 201 198 190 197 201 199 199 192 198 212 211 215
232 236 233 231 245 229 247 257 255 252 259 261 226 195 219 213 219 217 209 205 199 200 195 203 199 201 208 199 208 202 215 212
183 216 219 223 246 204 166 247 252 244 258 275 299 307 325 232 225 217 221 206 204 201 199 201 203 201 206 208 209 210 209 216
159 207 186 214 247 169 189 235 254 260 256 273 305 66 34 358 298 231 217 221 208 205 211 203 210 215 215 206 212 214 211 211
252 155 225 214 246 235 233 232 238 250 265 305 11 43 21 6 348 303 245 211 214 209 211 202 203 206 220 216 228 223 219 210
235 238 254 249 254 245 227 223 231 207 213 1 358 13 11 5 4 357 295 219 214 209 203 201 201 203 212 218 211 197 235 206
255 229 224 224 242 233 222 179 60 19 39 5 350 359 6 358 355 2 354 296 224 224 209 206 208 213 223 215 224 207 203 214
257 160 236 259 239 212 132 143 113 65 40 21 4 354 359 359 359 354 353 341 290 225 224 214 221 207 219 226 233 218 201 210
225 225 245 196 260 182 161 145 92 49 34 23 15 12 10 8 8 6 353 336 318 260 220 221 215 219 213 223 220 221 221 216